TimeCDT,TemperatureF,Dew PointF,Humidity,Sea Level PressureIn,VisibilityMPH,Wind Direction,Wind SpeedMPH,Gust SpeedMPH,PrecipitationIn,Events,Conditions,WindDirDegrees,DateUTC
12:53 AM,66.0,63.0,90,30.06,10.0,South,8.1,-,N/A,,Mostly Cloudy,170,2013-09-17 05:53:00
1:09 AM,64.4,62.6,94,30.15,10.0,South,8.1,-,N/A,,Scattered Clouds,170,2013-09-17 06:09:00
1:53 AM,64.0,62.1,93,30.05,10.0,South,4.6,-,N/A,,Clear,170,2013-09-17 06:53:00
2:53 AM,64.0,62.1,93,30.03,10.0,SSW,6.9,-,N/A,,Clear,210,2013-09-17 07:53:00
3:53 AM,64.0,62.1,93,30.01,10.0,SSW,6.9,-,N/A,,Clear,200,2013-09-17 08:53:00
4:53 AM,63.0,61.0,93,30.01,10.0,South,4.6,-,N/A,,Clear,190,2013-09-17 09:53:00
5:53 AM,63.0,61.0,93,30.00,10.0,SSW,6.9,-,N/A,,Partly Cloudy,200,2013-09-17 10:53:00
6:53 AM,63.0,60.1,90,30.00,10.0,SSW,8.1,-,N/A,,Clear,200,2013-09-17 11:53:00
7:53 AM,62.1,60.1,93,30.01,10.0,South,9.2,-,N/A,,Clear,180,2013-09-17 12:53:00
8:53 AM,66.0,62.1,87,29.99,10.0,South,13.8,-,N/A,,Clear,190,2013-09-17 13:53:00
9:53 AM,70.0,63.0,78,29.98,10.0,SSW,12.7,-,N/A,,Clear,210,2013-09-17 14:53:00
10:53 AM,75.0,64.0,69,29.96,10.0,SW,15.0,24.2,N/A,,Clear,220,2013-09-17 15:53:00
11:53 AM,79.0,64.0,60,29.93,10.0,SSW,16.1,23.0,N/A,,Clear,210,2013-09-17 16:53:00
12:53 PM,81.0,64.0,56,29.90,10.0,SSW,23.0,31.1,N/A,,Clear,200,2013-09-17 17:53:00
1:53 PM,82.9,64.0,53,29.88,10.0,SSW,16.1,26.5,N/A,,Clear,210,2013-09-17 18:53:00
2:53 PM,84.0,62.1,47,29.85,10.0,SSW,17.3,27.6,N/A,,Scattered Clouds,200,2013-09-17 19:53:00
3:53 PM,84.9,60.1,43,29.81,10.0,SSW,18.4,31.1,N/A,,Clear,200,2013-09-17 20:53:00
4:53 PM,84.9,61.0,44,29.80,10.0,South,18.4,29.9,N/A,,Clear,180,2013-09-17 21:53:00
5:53 PM,84.9,60.1,43,29.78,10.0,South,20.7,28.8,N/A,,Clear,180,2013-09-17 22:53:00
6:53 PM,81.0,62.1,52,29.80,10.0,South,19.6,31.1,N/A,,Clear,180,2013-09-17 23:53:00
7:53 PM,77.0,63.0,62,29.80,10.0,South,13.8,-,N/A,,Clear,180,2013-09-18 00:53:00
8:53 PM,73.0,62.1,68,29.82,10.0,South,13.8,21.9,N/A,,Clear,180,2013-09-18 01:53:00
9:53 PM,72.0,62.1,71,29.83,10.0,South,12.7,-,N/A,,Clear,180,2013-09-18 02:53:00
10:53 PM,71.1,63.0,75,29.83,10.0,South,11.5,-,N/A,,Clear,180,2013-09-18 03:53:00
11:53 PM,70.0,64.0,81,29.83,10.0,South,13.8,-,N/A,,Clear,180,2013-09-18 04:53:00